This demonstration page uses our WeatherBlox Daily Observations layout. Learn more.

Left ArrowRight Arrow

Hourly Observations for January 8, 2018

Temp ( °F °C ) Dew Point ( °F °C ) Humidity (%) Winds ( mph kmh ) Pressure ( in mb ) Visibility ( mi km ) Precip ( " mm )
12:15 am 00:15 Clear 19 -7 3 -16 49 49 S 6 9 30.42 1030 10 16.0934 0 0
12:35 am 00:35 Clear 19 -7 3 -16 49 49 S 6 9 30.42 1030 10 16.0934 0 0
12:55 am 00:55 Clear 19 -7 3 -16 49 49 S 3 6 30.42 1030 10 16.0934 0 0
1:15 am 01:15 Clear 19 -7 3 -16 49 49 S 5 7 30.39 1029 10 16.0934 0 0
1:35 am 01:35 Clear 19 -7 5 -15 53 53 S 5 7 30.39 1029 10 16.0934 0 0
1:55 am 01:55 Clear 19 -7 5 -15 53 53 S 5 7 30.39 1029 10 16.0934 0 0
2:15 am 02:15 Clear 19 -7 5 -15 53 53 S 5 7 30.39 1029 10 16.0934 0 0
2:35 am 02:35 Clear 19 -7 5 -15 53 53 S 5 7 30.36 1028 10 16.0934 0 0
2:55 am 02:55 Clear 19 -7 5 -15 53 53 S 7 11 30.36 1028 10 16.0934 0 0
3:15 am 03:15 Clear 19 -7 5 -15 53 53 S 5 7 30.36 1028 10 16.0934 0 0
3:35 am 03:35 Clear 19 -7 5 -15 53 53 S 6 9 30.33 1027 10 16.0934 0 0
3:55 am 03:55 Clear 19 -7 5 -15 53 53 S 3 6 30.36 1028 10 16.0934 0 0
4:15 am 04:15 Clear 19 -7 5 -15 53 53 S 7 11 30.33 1027 10 16.0934 0 0
4:35 am 04:35 Clear 19 -7 5 -15 53 53 S 3 6 30.33 1027 10 16.0934 0 0
4:55 am 04:55 Partly Cloudy 19 -7 7 -14 58 58 Calm 30.33 1027 10 16.0934 0 0
5:15 am 05:15 Partly Cloudy 21 -6 5 -15 49 49 S 6 9 30.3 1026 10 16.0934 0 0
5:35 am 05:35 Partly Cloudy 21 -6 5 -15 49 49 S 3 6 30.3 1026 10 16.0934 0 0
5:55 am 05:55 Partly Cloudy 19 -7 5 -15 53 53 Calm 30.3 1026 10 16.0934 0 0
6:15 am 06:15 Partly Cloudy 19 -7 7 -14 58 58 SSE 3 6 30.3 1026 10 16.0934 0 0
6:35 am 06:35 Mostly Cloudy 19 -7 7 -14 58 58 SSW 5 7 30.3 1026 10 16.0934 0 0
6:55 am 06:55 Partly Cloudy 19 -7 7 -14 58 58 S 5 7 30.3 1026 10 16.0934 0 0
7:15 am 07:15 Clear 19 -7 9 -13 63 63 SSW 3 6 30.3 1026 10 16.0934 0 0
7:35 am 07:35 Sunny 19 -7 9 -13 63 63 SSW 6 9 30.3 1026 10 16.0934 0 0
7:55 am 07:55 Partly Cloudy 19 -7 9 -13 63 63 Calm 30.3 1026 10 16.0934 0 0
8:15 am 08:15 Cloudy 21 -6 9 -13 58 58 Calm 30.27 1025 10 16.0934 0 0
8:35 am 08:35 Cloudy 23 -5 9 -13 54 54 Calm 30.27 1025 10 16.0934 0 0
8:55 am 08:55 Cloudy 23 -5 9 -13 54 54 Calm 30.27 1025 10 16.0934 0 0
9:15 am 09:15 Cloudy 25 -4 9 -13 50 50 Calm 30.27 1025 10 16.0934 0 0
9:35 am 09:35 Cloudy 25 -4 9 -13 50 50 S 5 7 30.27 1025 10 16.0934 0 0
9:55 am 09:55 Partly Cloudy 27 -3 9 -13 46 46 Calm 30.27 1025 10 16.0934 0 0
10:15 am 10:15 Sunny 28 -2 9 -13 43 43 SSE 5 7 30.24 1024 10 16.0934 0 0
10:35 am 10:35 Partly Cloudy 30 -1 10 -12 43 43 S 5 7 30.27 1025 10 16.0934 0 0
10:55 am 10:55 Partly Cloudy 30 -1 9 -13 40 40 Calm 30.24 1024 10 16.0934 0 0
11:15 am 11:15 Mostly Cloudy 30 -1 10 -12 43 43 S 5 7 30.24 1024 10 16.0934 0 0
11:35 am 11:35 Cloudy 30 -1 10 -12 43 43 Calm 30.24 1024 10 16.0934 0 0
11:55 am 11:55 Cloudy 30 -1 10 -12 43 43 S 7 11 30.24 1024 10 16.0934 0 0
12:15 pm 12:15 Cloudy 30 -1 10 -12 43 43 SW 7 11 30.24 1024 10 16.0934 0 0
12:35 pm 12:35 Cloudy with Light Snow 32 0 12 -11 44 44 S 6 9 30.24 1024 7 11.26538 0 0
12:55 pm 12:55 Cloudy with Light Snow 30 -1 18 -8 59 59 S 6 9 30.21 1023 7 11.26538 0 0
1:15 pm 13:15 Cloudy with Light Snow 30 -1 19 -7 64 64 S 6 9 30.21 1023 7 11.26538 0 0
1:35 pm 13:35 Cloudy with Light Wintry Mix 32 0 19 -7 60 60 S 9 15 30.18 1022 10 16.0934 0 0
1:55 pm 13:55 Cloudy with Light Wintry Mix 32 0 21 -6 64 64 S 10 17 30.18 1022 10 16.0934 0 0
2:15 pm 14:15 Cloudy 32 0 21 -6 64 64 S 10 17 30.15 1021 10 16.0934 0 0
2:35 pm 14:35 Cloudy 32 0 21 -6 64 64 SSW 10 17 30.15 1021 10 16.0934 0 0
2:55 pm 14:55 Cloudy 32 0 21 -6 64 64 SSW 10 17 30.15 1021 10 16.0934 0 0
3:15 pm 15:15 Cloudy 32 0 23 -5 69 69 SSW 14 22 30.15 1021 10 16.0934 0 0
3:35 pm 15:35 Cloudy 32 0 23 -5 69 69 SSW 13 20 30.15 1021 10 16.0934 0 0
3:55 pm 15:55 Cloudy 32 0 23 -5 69 69 SSW 9 15 30.15 1021 10 16.0934 0 0
4:15 pm 16:15 Cloudy 34 1 23 -5 65 65 SSW 10 17 30.15 1021 10 16.0934 0 0
4:35 pm 16:35 Cloudy 34 1 23 -5 65 65 SSW 10 17 30.15 1021 10 16.0934 0 0
4:55 pm 16:55 Cloudy 34 1 25 -4 70 70 SSW 8 13 30.15 1021 10 16.0934 0 0
5:15 pm 17:15 Cloudy with Light Wintry Mix 34 1 27 -3 75 75 SSW 5 7 30.15 1021 10 16.0934 0 0
5:35 pm 17:35 Cloudy with Light Wintry Mix 34 1 28 -2 81 81 SSW 5 7 30.15 1021 10 16.0934 0 0
5:55 pm 17:55 Cloudy with Light Wintry Mix 34 1 30 -1 87 87 SW 3 6 30.15 1021 10 16.0934 0 0
6:15 pm 18:15 Cloudy with Light Wintry Mix 34 1 30 -1 87 87 Calm 30.15 1021 10 16.0934 0 0
6:35 pm 18:35 Cloudy with Light Wintry Mix 34 1 32 0 93 93 Calm 30.15 1021 10 16.0934 0 0
6:55 pm 18:55 Cloudy with Light Wintry Mix 34 1 32 0 93 93 Calm 30.15 1021 10 16.0934 0 0
7:15 pm 19:15 Cloudy with Light Wintry Mix 34 1 32 0 93 93 Calm 30.15 1021 7 11.26538 0 0
7:35 pm 19:35 Cloudy with Light Wintry Mix 34 1 32 0 93 93 Calm 30.15 1021 10 16.0934 0 0
7:55 pm 19:55 Cloudy with Light Wintry Mix 34 1 32 0 93 93 Calm 30.15 1021 10 16.0934 0 0
8:15 pm 20:15 Cloudy 34 1 32 0 93 93 Calm 30.15 1021 7 11.26538 0 0
8:35 pm 20:35 Cloudy 32 0 32 0 100 100 Calm 30.15 1021 7 11.26538 0 0
8:55 pm 20:55 Cloudy 32 0 32 0 100 100 SSW 5 7 30.12 1020 10 16.0934 0 0
9:15 pm 21:15 Cloudy 34 1 34 1 100 100 SSW 5 7 30.12 1020 10 16.0934 0 0
9:35 pm 21:35 Partly Cloudy 34 1 32 0 93 93 SW 6 9 30.12 1020 10 16.0934 0 0
9:55 pm 21:55 Partly Cloudy 34 1 34 1 100 100 SW 3 6 30.12 1020 10 16.0934 0 0
10:15 pm 22:15 Partly Cloudy 32 0 32 0 100 100 WSW 3 6 30.12 1020 10 16.0934 0 0
10:35 pm 22:35 Mostly Cloudy 34 1 34 1 100 100 WSW 6 9 30.12 1020 10 16.0934 0 0
10:55 pm 22:55 Cloudy 34 1 34 1 100 100 WSW 6 9 30.12 1020 10 16.0934 0 0
11:15 pm 23:15 Cloudy 36 2 34 1 93 93 W 6 9 30.12 1020 10 16.0934 0 0
11:35 pm 23:35 Cloudy 36 2 34 1 93 93 W 5 7 30.12 1020 10 16.0934 0.01 0.254
11:55 pm 23:55 Cloudy 36 2 34 1 93 93 Calm 30.12 1020 10 16.0934 0.01 0.254

Powered by AerisWeather